Weather History for Darlington, SC

Change the Weather History Date:

Sunday, January 13, 2013

  Actual Average (KFLO) Record (KFLO)
Temperature  
Mean Temperature 65 °F 45 °F  
Max Temperature 75 °F 55 °F 78 °F (2005)
Min Temperature 55 °F 34 °F 11 °F (1981)
Degree Days  
Heating Degree Days 0 20  
Month to date heating degree days 267  
Since 1 July heating degree days 1246  
Cooling Degree Days 0 0  
Month to date cooling degree days 0  
Year to date cooling degree days 0  
Growing Degree Days 15 (Base 50)    
Moisture  
Dew Point 56 °F    
Average Humidity 76    
Maximum Humidity 94    
Minimum Humidity 53    
Precipitation  
Precipitation 0.00 in 0.11 in 1.47 in (1958)
Month to date precipitation 1.38  
Year to date precipitation 1.38  
Sea Level Pressure  
Sea Level Pressure 30.13 in    
Wind  
Wind Speed 6 mph (SSW)    
Max Wind Speed 13 mph    
Max Gust Speed 16 mph    
Visibility 8 miles    
Events      
T = Trace of Precipitation, MM = Missing Value Source: NWS Daily Summary

Daily Weather History Graph

Daily Weather History Graph

Search for Another Location

Airport:

Trip Planner

Search our weather history database for the weather conditions in past years. The results will help you decide how hot, cold, wet, or windy it might be!

Date:

Astronomy

Jan. 13, 2013 Rise Set
Actual Time 7:26 AM EST 5:30 PM EST
Civil Twilight 6:58 AM EST 5:58 PM EST
Nautical Twilight 6:27 AM EST 6:29 PM EST
Astronomical Twilight 5:57 AM EST 6:59 PM EST
Moon 8:30 AM EST (1/13) 7:59 PM EST (1/13)
Length of Visible Light 10h 59m
Length of Day
10h 04m
Waxing Crescent, 5% of the Moon is Illuminated
Jan 13
Waxing Crescent
Jan 18
First Quarter
Jan 26
Full
Feb 3
Last Quarter
Feb 10
New

Hourly Weather History & Observations

Time (EST) Temp. Dew Point Humidity Pressure Visibility Wind Dir Wind Speed Gust Speed Precip Events Conditions
12:15 AM 59.0 °F 53.6 °F 82% 30.13 in 10.0 mi SW 4.6 mph - N/A   Clear
12:35 AM 57.2 °F 53.6 °F 88% 30.12 in 10.0 mi SSW 3.5 mph - N/A   Clear
12:55 AM 57.2 °F 53.6 °F 88% 30.12 in 10.0 mi SW 4.6 mph - N/A   Clear
1:15 AM 57.2 °F 53.6 °F 88% 30.12 in 8.0 mi SSW 4.6 mph - N/A   Clear
1:35 AM 57.2 °F 53.6 °F 88% 30.13 in 8.0 mi South 4.6 mph - N/A   Clear
1:55 AM 57.2 °F 53.6 °F 88% 30.13 in 10.0 mi SSW 5.8 mph - N/A   Clear
2:15 AM 60.8 °F 55.4 °F 82% 30.12 in 10.0 mi South 3.5 mph - N/A   Clear
2:35 AM 57.2 °F 53.6 °F 88% 30.13 in 7.0 mi SSW 4.6 mph - N/A   Clear
2:55 AM 57.2 °F 53.6 °F 88% 30.13 in 7.0 mi SW 4.6 mph - N/A   Clear
3:15 AM 59.0 °F 55.4 °F 88% 30.12 in 6.0 mi South 4.6 mph - N/A   Clear
3:35 AM 59.0 °F 55.4 °F 88% 30.12 in 6.0 mi SSW 4.6 mph - N/A   Clear
3:55 AM 57.2 °F 55.4 °F 94% 30.12 in 3.0 mi SW 3.5 mph - N/A   Clear
4:15 AM 57.2 °F 53.6 °F 88% 30.12 in 1.5 mi SSW 4.6 mph - N/A   Clear
4:35 AM 59.0 °F 53.6 °F 82% 30.12 in 2.5 mi SW 4.6 mph - N/A   Clear
4:55 AM 57.2 °F 53.6 °F 88% 30.12 in 2.5 mi SSW 4.6 mph - N/A   Clear
5:15 AM 57.2 °F 53.6 °F 88% 30.12 in 1.2 mi SSW 4.6 mph - N/A   Clear
5:35 AM 57.2 °F 53.6 °F 88% 30.11 in 1.0 mi South 4.6 mph - N/A   Mostly Cloudy
5:55 AM 57.2 °F 53.6 °F 88% 30.13 in 0.5 mi SW 4.6 mph - N/A   Unknown
6:15 AM 57.2 °F 53.6 °F 88% 30.13 in 0.5 mi SSW 4.6 mph - N/A   Unknown
6:35 AM 55.4 °F 51.8 °F 88% 30.13 in 1.0 mi SSW 5.8 mph - N/A   Clear
6:55 AM 55.4 °F 53.6 °F 94% 30.14 in 0.5 mi South 5.8 mph - N/A   Unknown
7:15 AM 57.2 °F 53.6 °F 88% 30.14 in 0.8 mi SSW 5.8 mph - N/A   Unknown
7:35 AM 55.4 °F 51.8 °F 88% 30.15 in 0.2 mi SSW 4.6 mph - N/A   Unknown
7:55 AM 55.4 °F 51.8 °F 88% 30.16 in 0.2 mi SSW 5.8 mph - N/A   Unknown
8:15 AM 59.0 °F 55.4 °F 88% 30.16 in 2.0 mi SSW 5.8 mph - N/A   Clear
8:35 AM 59.0 °F 55.4 °F 88% 30.17 in 3.0 mi SSW 5.8 mph - N/A   Clear
8:55 AM 60.8 °F 57.2 °F 88% 30.17 in 4.0 mi SSW 5.8 mph - N/A   Clear
9:15 AM 60.8 °F 57.2 °F 88% 30.18 in 7.0 mi SSW 5.8 mph - N/A   Clear
9:35 AM 62.6 °F 59.0 °F 88% 30.17 in 10.0 mi SSW 8.1 mph - N/A   Clear
9:55 AM 64.4 °F 60.8 °F 88% 30.18 in 10.0 mi SSW 9.2 mph - N/A   Clear
10:15 AM 66.2 °F 60.8 °F 83% 30.18 in 10.0 mi SW 10.4 mph - N/A   Clear
10:35 AM 66.2 °F 59.0 °F 78% 30.18 in 10.0 mi SW 8.1 mph - N/A   Clear
10:55 AM 69.8 °F 60.8 °F 73% 30.16 in 10.0 mi SW 9.2 mph - N/A   Clear
11:15 AM 69.8 °F 60.8 °F 73% 30.16 in 10.0 mi SW 12.7 mph 16.1 mph N/A   Clear
11:35 AM 71.6 °F 60.8 °F 69% 30.14 in 10.0 mi SW 9.2 mph 16.1 mph N/A   Clear
11:55 AM 71.6 °F 60.8 °F 69% 30.13 in 10.0 mi SSW 11.5 mph - N/A   Clear
12:15 PM 73.4 °F 60.8 °F 65% 30.12 in 10.0 mi SSW 9.2 mph - N/A   Clear
12:35 PM 73.4 °F 59.0 °F 61% 30.12 in 10.0 mi SW 11.5 mph - N/A   Clear
12:55 PM 73.4 °F 59.0 °F 61% 30.11 in 10.0 mi SSW 9.2 mph - N/A   Clear
1:15 PM 75.2 °F 59.0 °F 57% 30.10 in 10.0 mi South 9.2 mph - N/A   Clear
1:35 PM 75.2 °F 59.0 °F 57% 30.09 in 10.0 mi SSW 9.2 mph - N/A   Clear
1:55 PM 75.2 °F 57.2 °F 53% 30.09 in 10.0 mi SW 10.4 mph - N/A   Clear
2:15 PM 75.2 °F 59.0 °F 57% 30.09 in 10.0 mi SSW 9.2 mph - N/A   Clear
2:35 PM 75.2 °F 57.2 °F 53% 30.09 in 10.0 mi SSW 9.2 mph - N/A   Clear
2:55 PM 75.2 °F 57.2 °F 53% 30.10 in 10.0 mi SSW 8.1 mph - N/A   Partly Cloudy
3:15 PM 75.2 °F 57.2 °F 53% 30.10 in 10.0 mi SSW 11.5 mph - N/A   Scattered Clouds
3:35 PM 75.2 °F 57.2 °F 53% 30.10 in 10.0 mi SSW 9.2 mph - N/A   Clear
3:55 PM 75.2 °F 59.0 °F 57% 30.11 in 10.0 mi South 9.2 mph - N/A   Clear
4:15 PM 73.4 °F 57.2 °F 57% 30.11 in 10.0 mi South 10.4 mph - N/A   Clear
4:35 PM 73.4 °F 57.2 °F 57% 30.12 in 10.0 mi South 9.2 mph - N/A   Clear
4:55 PM 71.6 °F 57.2 °F 60% 30.12 in 10.0 mi SSW 6.9 mph - N/A   Clear
5:15 PM 71.6 °F 57.2 °F 60% 30.11 in 10.0 mi South 5.8 mph - N/A   Clear
5:35 PM 69.8 °F 57.2 °F 64% 30.11 in 10.0 mi SSE 8.1 mph - N/A   Clear
5:55 PM 68.0 °F 57.2 °F 68% 30.11 in 10.0 mi SSE 6.9 mph - N/A   Clear
6:15 PM 66.2 °F 57.2 °F 73% 30.11 in 10.0 mi SSE 5.8 mph - N/A   Clear
6:35 PM 66.2 °F 57.2 °F 73% 30.11 in 10.0 mi SSE 6.9 mph - N/A   Clear
6:55 PM 66.2 °F 57.2 °F 73% 30.11 in 10.0 mi South 6.9 mph - N/A   Clear
7:15 PM 66.2 °F 57.2 °F 73% 30.11 in 10.0 mi South 6.9 mph - N/A   Clear
7:35 PM 64.4 °F 57.2 °F 77% 30.11 in 10.0 mi South 6.9 mph - N/A   Clear
7:55 PM 64.4 °F 57.2 °F 77% 30.11 in 10.0 mi South 5.8 mph - N/A   Clear
8:15 PM 64.4 °F 57.2 °F 77% 30.11 in 10.0 mi South 6.9 mph - N/A   Clear
8:35 PM 64.4 °F 57.2 °F 77% 30.11 in 10.0 mi South 5.8 mph - N/A   Clear
8:55 PM 64.4 °F 57.2 °F 77% 30.11 in 10.0 mi South 8.1 mph - N/A   Clear
9:15 PM 66.2 °F 57.2 °F 73% 30.11 in 10.0 mi South 6.9 mph - N/A   Clear
9:35 PM 64.4 °F 57.2 °F 77% 30.12 in 10.0 mi SSW 6.9 mph - N/A   Clear
9:55 PM 64.4 °F 57.2 °F 77% 30.12 in 10.0 mi South 8.1 mph - N/A   Clear
10:15 PM 64.4 °F 57.2 °F 77% 30.12 in 10.0 mi South 8.1 mph - N/A   Clear
10:35 PM 64.4 °F 55.4 °F 73% 30.13 in 10.0 mi SSW 6.9 mph - N/A   Clear
10:55 PM 64.4 °F 55.4 °F 73% 30.14 in 10.0 mi SSW 8.1 mph - N/A   Clear
11:15 PM 64.4 °F 55.4 °F 73% 30.13 in 10.0 mi South 6.9 mph - N/A   Clear
11:35 PM 62.6 °F 55.4 °F 77% 30.14 in 10.0 mi South 8.1 mph - N/A   Clear
11:55 PM 62.6 °F 55.4 °F 77% 30.14 in 10.0 mi SSW 8.1 mph - N/A   Clear